Total_Precipitation_Accumulation
3.84 4.04 3.93 3.97 3.73 3.94 4.31 4.48 4.08 4.12 3.90 3.76 3.52 3.25 3.23 2.96 2.65 2.56 2.67 2.69 2.53 2.50 2.75 2.91 2.82 2.81 2.88 2.66 2.42 2.13 1.94 1.91 1.76 1.52 1.37 1.34 1.28 1.18 1.14 1.04 1.00 0.90 0.86
3.39 3.53 3.47 3.60 3.47 3.60 3.77 3.77 3.76 4.13 4.08 3.89 3.52 3.22 3.09 3.07 2.88 2.67 2.88 2.88 2.79 2.53 2.62 3.04 3.31 3.33 3.42 3.27 2.97 2.64 2.34 2.11 1.84 1.55 1.42 1.40 1.34 1.29 1.35 1.38 1.41 1.10 0.95
3.11 3.15 3.22 3.23 3.30 3.23 3.31 3.31 3.40 3.74 3.85 3.74 3.50 3.19 3.03 3.03 3.01 2.93 2.83 2.89 2.81 2.78 2.70 2.85 3.16 3.31 3.61 3.77 3.63 3.20 2.83 2.42 1.99 1.59 1.36 1.31 1.27 1.16 1.23 1.32 1.38 1.21 1.09
2.60 2.76 2.73 2.72 2.81 2.80 2.92 3.17 3.20 3.46 3.74 3.82 3.75 3.31 3.20 3.14 2.97 3.02 2.90 2.82 3.12 2.87 3.04 3.18 3.16 3.14 3.56 3.99 4.19 4.05 3.59 2.87 2.26 1.87 1.59 1.42 1.36 1.26 1.19 1.23 1.25 1.24 1.14
2.44 2.56 2.68 2.76 2.45 2.54 2.72 2.62 3.05 3.34 3.66 3.71 3.23 3.23 3.00 2.87 2.85 2.63 2.77 2.65 2.85 3.01 3.26 3.27 3.27 3.16 3.54 4.33 4.93 5.14 4.66 3.74 2.97 2.51 2.26 2.04 1.79 1.49 1.35 1.33 1.29 1.27 1.20
2.48 2.59 2.49 2.35 2.14 2.38 2.77 2.94 3.42 3.47 3.43 3.43 2.83 3.03 2.80 2.44 2.51 2.61 2.51 2.59 2.63 2.49 2.91 3.29 3.50 3.01 3.37 4.06 4.60 5.09 5.37 4.99 4.18 3.45 3.09 2.82 2.53 2.03 1.55 1.39 1.38 1.37 1.28
2.59 2.67 2.45 2.55 2.27 2.37 2.53 2.67 3.03 3.23 3.21 3.19 3.46 3.49 3.01 2.51 2.49 2.41 2.34 2.60 2.59 2.58 3.01 3.51 3.67 3.51 3.08 2.89 3.04 3.75 4.74 5.43 5.35 4.60 4.02 3.55 3.20 2.63 1.99 1.63 1.44 1.38 1.39
2.56 2.40 2.61 2.40 2.37 2.62 2.66 2.80 3.07 3.20 3.17 3.22 3.40 3.73 3.48 3.38 2.82 2.11 2.33 2.47 2.56 2.80 2.84 2.98 3.33 3.66 3.27 3.25 2.51 2.55 3.49 4.37 5.24 5.30 4.61 3.83 3.50 3.18 2.68 2.23 1.90 1.64 1.52
2.44 2.53 2.47 2.53 2.69 2.38 2.65 2.87 2.91 3.16 3.28 3.16 3.09 3.49 3.51 3.45 2.98 2.35 2.19 2.26 2.49 2.79 2.79 2.90 2.72 2.99 3.23 3.57 3.29 2.59 2.65 2.98 4.03 5.12 5.17 4.40 3.64 3.09 2.89 2.78 2.57 2.19 1.88
2.32 2.34 2.45 2.78 2.91 2.63 2.86 2.43 2.62 2.99 3.22 3.14 3.14 2.89 2.75 2.87 3.09 2.98 2.54 2.28 2.39 2.49 2.57 2.58 2.70 2.97 3.16 3.49 3.46 2.61 2.01 2.10 2.86 4.10 4.94 4.82 4.19 3.42 3.05 3.12 3.44 3.39 2.85
2.66 2.33 2.37 2.68 2.86 2.85 2.95 2.77 3.00 2.82 2.77 2.79 2.89 2.89 2.83 2.69 2.49 2.73 2.79 2.62 2.46 2.15 2.10 2.17 2.31 2.49 2.57 2.96 3.29 2.53 2.05 2.01 2.19 2.80 3.44 3.90 3.96 3.72 3.45 3.57 4.19 4.60 4.42
2.65 2.43 2.43 2.78 2.82 2.83 3.00 2.88 2.86 2.71 2.73 2.76 2.67 2.59 2.86 2.83 2.65 2.73 2.51 2.50 2.42 1.93 1.79 1.87 1.94 2.04 2.21 2.49 2.45 2.29 2.32 2.35 2.17 2.15 2.26 2.51 2.93 3.24 3.52 3.78 4.22 4.70 4.97
2.32 2.42 2.58 2.92 2.87 2.86 2.82 2.89 2.80 2.80 2.88 2.91 2.78 2.61 2.61 2.63 2.67 2.67 2.63 2.30 2.15 1.89 1.89 1.80 1.77 2.00 2.12 2.61 2.80 2.59 2.47 2.63 2.26 1.97 1.86 1.85 1.98 2.27 2.62 3.02 3.57 4.13 4.61
2.32 2.43 2.59 2.57 2.56 2.64 2.51 2.79 2.60 2.60 2.77 2.81 2.65 2.98 2.87 2.49 2.61 2.65 2.78 2.96 2.71 2.39 2.31 2.16 2.08 2.27 2.52 2.75 3.04 2.88 2.45 2.32 2.00 1.84 1.76 1.70 1.72 1.77 1.89 2.08 2.37 2.77 3.12
2.26 2.39 2.42 2.49 2.52 2.52 2.56 2.78 2.69 2.72 2.91 2.73 2.70 3.09 2.90 2.52 2.50 2.57 2.76 3.09 3.35 2.95 2.60 2.51 2.53 2.60 2.70 2.71 2.86 2.61 2.38 2.29 2.02 1.80 1.73 1.71 1.70 1.65 1.63 1.64 1.71 1.87 2.06
2.10 2.25 2.31 2.41 2.48 2.45 2.54 2.71 2.56 2.74 2.83 2.73 2.74 2.83 2.77 2.53 2.57 2.64 2.81 3.02 3.29 3.23 2.80 2.53 2.73 2.77 2.65 2.44 2.73 2.60 2.34 2.25 1.97 1.77 1.60 1.56 1.60 1.66 1.69 1.69 1.65 1.68 1.73
2.09 2.20 2.30 2.37 2.39 2.44 2.59 2.68 2.51 2.66 2.66 2.77 2.71 2.67 2.63 2.82 2.87 2.71 2.86 2.96 3.18 3.39 3.14 2.71 2.81 2.81 2.71 2.49 2.46 2.40 2.29 2.25 2.04 1.98 1.73 1.61 1.53 1.52 1.53 1.57 1.65 1.70 1.68
2.17 2.26 2.36 2.45 2.35 2.44 2.59 2.54 2.52 2.58 2.63 2.62 2.73 2.93 2.86 3.01 3.02 2.97 3.15 3.13 3.21 3.44 3.34 3.02 2.90 2.95 2.83 2.68 2.59 2.37 2.04 1.95 1.95 2.13 1.94 1.74 1.62 1.56 1.50 1.47 1.45 1.43 1.43
2.31 2.29 2.27 2.34 2.46 2.64 2.68 2.52 2.50 2.49 2.40 2.33 2.51 2.79 3.08 3.52 3.37 3.20 3.08 2.99 3.02 3.08 3.30 3.05 2.81 3.01 2.85 2.74 2.69 2.35 2.09 2.03 1.71 1.80 1.84 1.69 1.53 1.39 1.32 1.30 1.28 1.26 1.22
2.31 2.37 2.42 2.44 2.52 2.56 2.52 2.50 2.55 2.54 2.50 2.35 2.37 2.48 2.64 2.93 3.09 3.24 3.02 2.90 2.95 3.03 3.17 3.11 3.05 3.26 3.29 3.13 2.93 2.54 2.36 2.21 1.95 1.64 1.69 1.59 1.48 1.38 1.30 1.25 1.22 1.21 1.22
2.37 2.56 2.60 2.57 2.56 2.51 2.31 2.50 2.63 2.51 2.60 2.50 2.43 2.36 2.20 2.33 2.52 2.72 2.58 2.88 3.07 3.04 3.11 3.17 3.28 3.64 3.63 3.42 2.90 2.64 2.53 2.41 2.15 1.79 1.72 1.52 1.42 1.31 1.28 1.31 1.27 1.22 1.19
2.84 2.87 2.71 2.65 2.59 2.33 2.49 2.55 2.59 2.61 2.70 2.63 2.54 2.49 2.31 2.14 2.11 2.24 2.31 2.53 2.80 2.85 2.94 3.09 3.17 3.37 3.42 3.36 3.13 2.85 2.62 2.46 2.17 1.90 1.89 1.74 1.57 1.47 1.35 1.26 1.37 1.37 1.32
2.95 2.94 2.98 2.93 2.81 2.86 2.87 2.53 2.47 2.49 2.56 2.56 2.70 2.77 2.33 1.94 2.14 2.10 2.19 2.21 2.15 2.31 2.52 2.74 2.89 2.95 3.27 3.39 3.40 2.97 2.79 2.60 2.25 2.08 2.12 1.93 1.81 1.63 1.41 1.33 1.45 1.33 1.32
2.90 2.85 2.79 2.72 2.68 2.65 2.72 2.47 2.40 2.28 2.30 2.32 2.34 2.36 2.33 2.15 2.08 2.11 2.09 1.96 1.82 1.83 1.96 2.03 2.13 2.42 2.79 3.27 3.57 3.30 3.17 2.97 2.61 2.29 2.10 1.96 1.84 1.71 1.51 1.43 1.49 1.35 1.26
2.78 2.71 2.64 2.63 2.57 2.57 2.64 2.44 2.39 2.20 2.16 2.09 2.06 2.07 2.10 1.97 2.04 2.01 1.91 1.86 1.79 1.68 1.69 1.77 1.76 1.89 2.21 2.62 3.11 3.32 3.06 2.71 2.40 2.10 2.01 1.89 1.72 1.80 1.76 1.62 1.54 1.58 1.37
2.90 2.84 2.75 2.74 2.71 2.67 2.80 2.54 2.39 2.19 2.18 2.19 2.28 2.25 2.20 2.03 2.01 1.90 1.74 1.75 1.62 1.51 1.62 1.61 1.54 1.55 1.67 2.01 2.52 2.68 2.79 2.63 2.34 2.08 1.78 1.80 1.74 1.87 1.90 1.64 1.48 1.48 1.43